Powrót do katalogu

FENGYUN 1C DEB

AktywnyPO
NORAD 29986·DEBRIS·🇨🇳 China

Wystrzelony May 10, 1999 z Taiyuan Satellite Launch Center

Loading…

Następne Przeloty (najbliższe 24 godziny)

TLE

ŚwieżeSource: Space-Track

Epoka: Sep 14, 2026, 05:08 UTC

1 29986U 99025LL  26257.21429399  .00002198  00000-0  85180-3 0  9995
2 29986  99.3877 351.4831 0021970 281.2001 108.6194 14.31024348 14191

Śledź FENGYUN 1C DEB w czasie rzeczywistym z AllMySat

Download on the App Store